Weather History for MMMZ - February, 2013

Change the Weather History Date:

Thursday, February 28, 2013

  Actual Average Record
Temperature  
Mean Temperature 60 °F -  
Max Temperature 77 °F 77 °F 84 °F (2009)
Min Temperature 44 °F 51 °F 42 °F (1997)
Degree Days  
Heating Degree Days 4    
Growing Degree Days 10 (Base 50)    
Moisture  
Dew Point 49 °F    
Average Humidity 70    
Maximum Humidity 93    
Minimum Humidity 41    
Precipitation  
Precipitation 0.00 in - - ()
Sea Level Pressure  
Sea Level Pressure 29.90 in    
Wind  
Wind Speed 6 mph ()    
Max Wind Speed 16 mph    
Max Gust Speed -    
Visibility 9.2 miles    
Events      
Averages and records for this station are not official NWS values.
T = Trace of Precipitation, MM = Missing Value Source: Averaged Metar Reports

Daily Weather History Graph

Daily Weather History Graph

Search for Another Location

Airport or City:

Trip Planner

Search our weather history database for the weather conditions in past years. The results will help you decide how hot, cold, wet, or windy it might be!

Date:

Astronomy

Feb. 28, 2013 Rise Set
Actual Time 6:27 AM MST 6:08 PM MST
Civil Twilight 6:04 AM MST 6:30 PM MST
Nautical Twilight 5:38 AM MST 6:56 PM MST
Astronomical Twilight 5:12 AM MST 7:23 PM MST
Moon 9:06 PM MST (2/28) 8:05 AM MST (2/28)
Length of Visible Light 12h 26m
Length of Day
11h 40m
Waning Gibbous, 90% of the Moon is Illuminated
Feb 28
Waning Gibbous
Mar 4
Last Quarter
Mar 11
New
Mar 19
First Quarter
Mar 27
Full

Hourly Weather History & Observations

Time (MST) Temp. Windchill Dew Point Humidity Pressure Visibility Wind Dir Wind Speed Gust Speed Precip Events Conditions
12:41 AM 48.2 °F - 44.6 °F 87% 29.90 in 10.0 mi Calm Calm - N/A   Scattered Clouds
1:40 AM 50.0 °F - 46.4 °F 87% 29.89 in 5.0 mi East 8.1 mph - N/A   Mostly Cloudy
2:41 AM 50.0 °F - 46.4 °F 87% 29.89 in 8.0 mi ENE 6.9 mph - N/A   Mostly Cloudy
3:40 AM 48.2 °F - 44.6 °F 87% 29.88 in 8.0 mi North 6.9 mph - N/A   Mostly Cloudy
4:43 AM 46.4 °F 44.3 °F 42.8 °F 87% 29.88 in 8.0 mi NNE 4.6 mph - N/A   Scattered Clouds
5:40 AM 46.4 °F 42.4 °F 42.8 °F 87% 29.90 in 8.0 mi North 8.1 mph - N/A   Scattered Clouds
6:49 AM 44.6 °F 40.2 °F 42.8 °F 93% 29.91 in 5.0 mi NNE 8.1 mph - N/A   Clear
7:47 AM 53.6 °F - 48.2 °F 82% 29.95 in 8.0 mi North 6.9 mph - N/A   Clear
8:48 AM 60.8 °F - 50.0 °F 68% 29.95 in 10.0 mi NE 3.5 mph - N/A   Clear
9:50 AM 66.2 °F - 51.8 °F 60% 29.95 in 10.0 mi South 8.1 mph - N/A   Clear
10:52 AM 71.6 °F - 53.6 °F 53% 29.94 in 10.0 mi South 6.9 mph - N/A   Clear
11:51 AM 73.4 °F - 51.8 °F 47% 29.92 in 10.0 mi West 10.4 mph - N/A   Clear
12:47 PM 77.0 °F - 51.8 °F 41% 29.89 in 10.0 mi West 10.4 mph - N/A   Clear
1:47 PM 75.2 °F - 53.6 °F 47% 29.87 in 12.0 mi WSW 16.1 mph - N/A   Clear
2:51 PM 73.4 °F - 53.6 °F 50% 29.85 in 10.0 mi SSW 13.8 mph - N/A   Partly Cloudy
3:46 PM 73.4 °F - 53.6 °F 50% 29.85 in 10.0 mi WSW 15.0 mph - N/A   Partly Cloudy
4:46 PM 69.8 °F - 50.0 °F 49% 29.86 in 10.0 mi WSW 12.7 mph - N/A   Partly Cloudy
5:47 PM 66.2 °F - 51.8 °F 60% 29.87 in 10.0 mi West 9.2 mph - N/A   Partly Cloudy
6:51 PM 62.6 °F - 51.8 °F 68% 29.87 in 10.0 mi West 10.4 mph - N/A   Clear
7:46 PM 59.0 °F - 50.0 °F 72% 29.89 in 10.0 mi West 6.9 mph - N/A   Clear
8:44 PM 57.2 °F - 48.2 °F 72% 29.90 in 10.0 mi North 8.1 mph - N/A   Clear
9:49 PM 53.6 °F - 46.4 °F 77% 29.91 in 10.0 mi NW 5.8 mph - N/A   Clear
10:47 PM 51.8 °F - 44.6 °F 76% 29.94 in 10.0 mi NW 5.8 mph - N/A   Scattered Clouds
11:41 PM 50.0 °F - 44.6 °F 82% 29.91 in 10.0 mi NE 8.1 mph - N/A   Scattered Clouds